User: anonymous   Login
Location: Unspecified
(0.0000°N, 0.0000°E)
Time: 19:04:02
(UTC+00:00)
Language:

Kosmos-2004 - Orbit

View from above orbital plane
View from above orbital plane
View from above satellite
View from above satellite

Ground track
Ground track

The orbit data is extracted from the following two-line orbital elements,

1 19826U 89017A   17084.74646830 +.00000049 +00000-0 +37134-4 0  9994
2 19826 082.9502 245.4998 0028971 251.2433 234.7839 13.72233080406209
Epoch (UTC): 25 March 2017 17:54:54
Eccentricity: 0.0028971
inclination: 82.9502°
perigee height: 970 km
apogee height: 1013 km
right ascension of ascending node: 245.4998°
argument of perigee: 251.2433°
revolutions per day: 13.72233080
mean anomaly at epoch: 234.7839°
orbit number at epoch: 40620

The dashed part of the orbit path shows where the satellite is in the earth's shadow,  

DLR